Chillicothe, MO

9:07 PM CST on February 20, 2017 (GMT -0600)
Chillicothe

Weather History for KCDJ - July, 2013

Change the Weather History Date:

Saturday, July 20, 2013

  Actual Average (KIRK) Record (KIRK)
Temperature  
Mean Temperature 80 °F -  
Max Temperature 88 °F 87 °F 110 °F (1934)
Min Temperature 73 °F 67 °F 33 °F (1996)
Cooling Degree Days 14    
Growing Degree Days 30 (Base 50)    
Moisture  
Dew Point 66 °F    
Average Humidity 65    
Maximum Humidity 84    
Minimum Humidity 43    
Precipitation  
Precipitation 0.00 in - - ()
Sea Level Pressure  
Sea Level Pressure 29.88 in    
Wind  
Wind Speed 2 mph (NNE)    
Max Wind Speed 8 mph    
Max Gust Speed -    
Averages and records for this station are not official NWS values.
T = Trace of Precipitation, MM = Missing Value Source: NWS Daily Summary

Daily Weather History Graph

Daily Weather History Graph

Search for Another Location

Airport or City:

Trip Planner

Search our weather history database for the weather conditions in past years. The results will help you decide how hot, cold, wet, or windy it might be!

Date:

Astronomy

Jul. 20, 2013 Rise Set
Actual Time 6:02 AM CDT 8:38 PM CDT
Civil Twilight 5:31 AM CDT 9:09 PM CDT
Nautical Twilight 4:52 AM CDT 9:48 PM CDT
Astronomical Twilight 4:08 AM CDT 10:31 PM CDT
Moon 6:42 PM CDT (7/20) 3:43 AM CDT (7/20)
Length of Visible Light 15h 37m
Length of Day
14h 35m
Waxing Gibbous, 94% of the Moon is Illuminated
Jul 20
Waxing Gibbous
Jul 22
Full
Jul 29
Last Quarter
Aug 6
New
Aug 14
First Quarter

Hourly Weather History & Observations

Time (CDT) Temp. Heat Index Dew Point Humidity Pressure Visibility Wind Dir Wind Speed Gust Speed Precip Events Conditions
12:52 AM 78.1 °F - 72.0 °F 81% 29.85 in - Calm Calm - N/A   Unknown
1:52 AM 78.1 °F - 71.1 °F 79% 29.84 in - Calm Calm - N/A   Unknown
2:52 AM 79.0 °F - 70.0 °F 74% 29.85 in - North 5.8 mph - N/A   Unknown
3:52 AM 77.0 °F - 68.0 °F 74% 29.85 in - North 3.5 mph - N/A   Unknown
4:52 AM 77.0 °F - 66.0 °F 69% 29.86 in - North 4.6 mph - N/A   Unknown
5:52 AM 75.0 °F - 66.0 °F 73% 29.87 in - Calm Calm - N/A   Unknown
6:52 AM 75.0 °F - 66.0 °F 73% 29.88 in - North 3.5 mph - N/A   Unknown
7:52 AM 75.9 °F - 64.0 °F 67% 29.89 in - NNE 4.6 mph - N/A   Unknown
8:52 AM 79.0 °F - 64.0 °F 60% 29.89 in - Variable 3.5 mph - N/A   Unknown
9:52 AM 80.1 °F 81.7 °F 64.0 °F 58% 29.90 in - Calm Calm - N/A   Unknown
10:52 AM 82.9 °F 84.6 °F 64.9 °F 54% 29.91 in - SSW 3.5 mph - N/A   Unknown
11:52 AM 82.9 °F 85.0 °F 66.0 °F 56% 29.92 in - WNW 3.5 mph - N/A   Unknown
12:52 PM 86.0 °F 88.2 °F 66.0 °F 51% 29.92 in - North - - N/A   Unknown
1:52 PM 86.0 °F 87.6 °F 64.9 °F 49% 29.91 in - NE 8.1 mph - N/A   Unknown
2:52 PM 86.0 °F 87.3 °F 64.0 °F 48% 29.89 in - ENE 3.5 mph - N/A   Unknown
3:52 PM 86.0 °F 86.8 °F 63.0 °F 46% 29.88 in - ENE 4.6 mph - N/A   Unknown
4:52 PM 84.9 °F 86.6 °F 64.9 °F 51% 29.86 in - ENE 3.5 mph - N/A   Unknown
5:52 PM 86.0 °F 86.1 °F 61.0 °F 43% 29.85 in - North 4.6 mph - N/A   Unknown
6:52 PM 82.0 °F 85.5 °F 69.1 °F 65% 29.85 in - Calm Calm - N/A   Unknown
7:52 PM 79.0 °F - 69.1 °F 72% 29.86 in - Calm Calm - N/A   Unknown
8:52 PM 77.0 °F - 69.1 °F 76% 29.86 in - East 3.5 mph - N/A   Unknown
9:52 PM 75.9 °F - 66.9 °F 74% 29.89 in - Calm Calm - N/A   Unknown
10:52 PM 73.9 °F - 66.9 °F 79% 29.91 in - Calm Calm - N/A   Unknown
11:52 PM 73.0 °F - 68.0 °F 84% 29.89 in - Calm Calm - N/A   Unknown